Theta_e
340 340 340 341 341 341 340 340 340 339 338 337 337 336 334 332 333 335 336 337 336 336 335 335 333 328 326 325 325 325 326 328 330 329 328 323 318 316 319 324 327 327 326 326 327 326 323 323 324 327 327 329 329 325 326 332 334 335 336 336 334 333
340 341 341 341 341 340 340 340 339 339 338 337 336 335 334 334 335 336 337 337 338 338 337 338 338 333 329 327 327 328 328 329 329 332 333 333 328 322 317 317 321 325 325 325 327 328 325 323 326 327 329 333 334 331 331 334 336 336 336 336 336 335
340 341 341 341 341 340 340 339 339 338 337 337 336 335 335 335 336 337 337 338 338 339 338 339 340 338 336 334 334 333 332 332 332 333 333 334 334 333 328 321 317 318 320 322 326 331 330 329 332 333 334 335 335 335 335 335 335 335 335 334 334 335
340 341 341 340 340 341 340 339 338 338 337 336 335 334 335 336 337 338 338 338 338 338 338 337 339 340 339 337 337 337 336 335 335 334 334 334 334 335 335 333 326 321 319 320 322 327 330 331 332 332 332 332 333 334 335 334 333 334 334 333 333 333
339 340 340 340 340 340 339 338 338 337 337 335 335 334 335 336 338 337 336 337 337 337 337 336 337 338 338 337 338 338 337 337 337 335 335 334 334 334 334 335 334 332 329 327 327 329 331 332 332 332 332 332 332 333 334 334 333 333 333 333 333 333
339 340 340 339 339 339 338 338 338 337 336 334 334 335 336 338 338 336 337 338 337 337 337 336 336 337 337 338 338 338 337 337 337 337 336 335 335 334 335 335 335 335 334 334 334 335 336 336 335 335 334 333 332 333 333 333 333 334 334 333 333 333
340 340 339 339 339 338 337 337 337 336 334 334 335 337 338 338 338 338 337 338 338 338 338 338 338 338 338 338 338 338 338 337 338 337 336 336 336 336 336 336 337 336 336 337 337 337 338 337 337 336 335 334 334 334 334 334 334 334 334 334 333 333
339 339 339 339 339 337 335 336 336 334 335 336 337 338 338 338 338 338 338 339 339 339 339 338 338 338 338 337 337 338 338 337 337 337 336 336 337 338 338 337 338 337 337 337 337 337 337 337 337 337 336 336 336 336 336 336 336 335 336 336 335 334
337 337 338 339 338 336 334 335 335 334 336 339 338 338 338 339 339 339 339 340 339 339 338 338 338 338 338 337 337 338 337 337 337 337 337 337 337 338 338 338 337 337 337 337 337 337 337 337 337 337 337 337 337 337 336 337 336 337 337 337 337 336
337 337 337 339 338 334 334 335 334 335 336 338 338 338 338 339 339 339 339 339 339 339 338 338 339 339 338 338 337 337 337 337 337 337 337 337 337 338 337 337 337 337 337 337 337 337 337 337 337 337 336 336 336 336 336 336 336 336 336 336 336 336
338 337 336 338 337 334 335 336 335 336 336 337 338 338 338 339 339 339 339 339 339 339 339 339 339 339 338 338 337 337 338 337 337 337 337 337 337 337 337 337 337 337 336 336 336 336 337 337 336 336 336 335 335 335 335 335 335 335 335 335 335 335
338 337 335 335 335 334 336 337 337 336 337 337 338 338 338 339 339 338 339 338 339 339 339 339 339 339 338 337 336 336 337 337 337 337 337 337 337 337 337 337 336 336 335 335 335 335 335 335 335 335 334 334 333 333 333 333 333 333 333 334 334 335
336 337 334 333 335 336 337 337 337 337 337 337 338 338 339 339 339 338 338 339 339 340 339 339 339 338 337 336 336 336 337 336 336 336 336 336 336 336 336 336 335 334 334 334 333 333 333 334 334 333 333 332 332 332 332 332 332 332 333 333 334 334
335 336 334 334 336 336 337 337 337 337 337 337 337 339 339 339 338 338 338 339 339 340 340 339 338 338 337 336 336 337 337 336 336 335 336 336 335 335 334 334 334 333 333 333 333 333 333 332 332 332 332 331 331 331 331 331 331 332 332 333 333 334
336 335 334 336 336 336 337 336 337 338 338 338 338 339 338 338 337 338 338 339 339 340 339 339 338 337 337 336 337 337 336 336 336 335 335 335 335 334 334 333 333 333 333 332 332 332 331 332 331 331 330 330 329 329 330 330 330 330 330 330 331 330
336 336 335 336 336 336 336 337 338 338 338 339 338 338 338 338 338 338 338 339 339 339 339 338 337 337 337 336 336 336 336 336 336 336 335 334 334 333 333 332 332 332 332 331 331 331 331 330 330 329 328 327 327 328 328 328 327 326 325 326 326 325
337 336 336 336 336 336 336 337 337 338 338 338 338 338 338 338 337 337 337 338 339 338 338 338 338 337 336 336 335 335 335 335 335 335 334 333 333 332 331 331 331 330 330 329 329 329 329 328 328 327 326 326 326 326 326 325 324 323 322 322 321 321
337 337 336 336 336 336 336 336 336 337 337 337 338 338 338 337 336 336 337 337 338 337 337 337 337 337 336 335 335 334 334 333 333 333 332 332 331 330 330 329 329 328 327 327 326 326 326 326 325 324 325 326 324 323 323 323 322 321 319 317 315 315
337 337 337 336 336 337 336 337 337 337 337 337 337 337 337 336 336 337 337 337 336 336 336 335 335 335 335 334 334 333 332 331 331 330 330 330 328 327 327 326 326 325 324 323 323 322 323 322 322 321 323 326 324 321 321 321 320 319 316 313 311 310
336 336 337 337 337 337 337 337 337 336 336 336 336 336 336 335 335 336 336 336 336 335 334 334 333 333 333 333 332 331 330 329 328 327 328 327 325 324 324 324 324 323 322 321 320 319 318 318 319 318 321 325 325 321 318 318 317 316 314 310 307 306
336 337 337 337 337 337 337 336 336 336 335 335 334 335 334 334 334 334 334 334 334 334 333 333 332 332 332 331 331 330 328 327 325 325 325 324 322 322 322 322 321 320 319 318 317 315 314 315 316 317 319 322 323 321 318 316 315 313 311 307 303 302
336 337 337 337 337 337 336 336 336 335 334 333 333 333 333 332 332 332 331 332 332 332 332 332 331 331 332 331 330 330 327 325 324 323 322 321 320 319 319 319 319 318 316 314 314 313 312 313 314 317 319 321 323 323 319 314 312 312 310 306 301 299
337 337 336 336 336 336 335 335 335 334 332 332 331 332 332 331 330 330 329 329 329 329 329 329 329 329 329 329 327 326 324 323 322 321 320 318 317 315 314 315 315 315 313 312 312 312 312 311 312 315 318 322 324 326 326 317 309 310 310 305 299 297
337 337 336 336 335 335 335 334 334 332 332 332 330 331 331 328 328 328 327 327 326 326 326 326 325 326 326 325 323 322 321 321 319 318 317 315 313 312 310 309 309 310 310 311 311 312 311 310 309 313 319 323 320 323 330 319 309 310 309 305 299 296
337 336 335 335 335 335 334 333 332 330 330 329 328 329 328 326 325 325 325 324 324 323 323 323 323 323 322 321 321 320 319 318 317 315 314 312 311 309 306 306 306 307 309 310 311 311 311 310 309 309 313 318 319 321 322 313 310 312 308 305 301 296
336 335 335 334 334 335 334 333 331 330 328 327 325 325 325 324 323 323 322 322 321 321 321 321 320 320 320 319 319 318 317 316 314 313 312 311 309 306 305 306 306 307 308 309 310 311 311 310 309 308 307 309 312 314 311 308 311 313 308 305 302 297
335 334 334 334 334 334 333 332 331 330 330 329 326 324 323 323 322 321 320 319 319 318 318 318 318 318 318 317 317 316 315 313 312 311 310 309 307 306 306 307 307 307 308 308 308 309 309 308 308 307 306 306 305 306 306 306 308 311 310 307 302 298
334 334 334 334 334 334 333 332 331 331 330 329 327 324 322 321 320 319 318 317 317 316 316 316 316 316 316 316 315 314 312 311 310 310 310 308 308 307 307 308 308 307 308 308 308 308 307 307 306 306 305 305 305 304 304 303 303 306 308 306 303 299
333 334 334 334 334 333 333 332 331 331 329 327 326 323 321 319 318 317 317 315 315 314 314 314 315 315 315 315 314 312 311 309 309 309 309 308 308 307 307 308 307 307 307 307 307 307 306 305 305 305 304 304 304 303 302 301 300 301 302 304 304 300
333 333 333 333 334 333 332 331 331 330 328 325 323 321 319 318 316 316 315 313 313 312 312 312 313 313 313 313 312 311 310 309 308 308 308 308 307 307 307 307 307 307 306 306 306 305 305 304 304 303 303 302 302 301 301 299 299 299 299 300 301 299
332 332 333 333 334 333 332 332 331 330 328 324 322 320 318 316 315 314 313 312 311 311 311 311 311 311 311 311 310 309 308 308 307 307 307 307 307 307 307 307 306 305 305 305 305 304 304 303 303 301 300 299 298 298 299 298 298 298 298 298 298 298
332 332 333 333 334 333 332 332 331 329 327 325 323 321 318 316 314 313 312 311 310 310 310 310 310 310 310 309 308 308 308 307 307 306 306 306 306 306 306 306 305 304 303 303 303 303 303 302 301 299 297 296 296 296 297 297 297 297 297 297 297 296
332 333 333 333 333 333 333 331 330 329 327 325 323 321 319 316 314 313 311 310 309 309 309 309 309 309 308 308 307 307 307 307 307 306 306 306 306 306 306 306 305 304 303 303 303 302 301 301 299 297 296 296 296 296 296 296 296 296 296 296 296 296
333 333 333 334 333 333 333 331 329 328 326 324 322 320 318 316 313 311 310 309 308 308 308 308 308 308 308 307 307 306 307 307 307 306 306 306 305 305 305 305 304 304 303 302 302 300 298 298 297 296 296 296 296 297 296 296 296 295 296 296 296 296
332 332 333 333 333 332 331 330 328 327 325 323 321 319 317 315 312 310 308 307 307 307 307 307 307 307 307 307 306 306 306 307 307 306 306 305 305 305 305 304 304 303 302 302 301 298 296 296 296 296 296 297 297 296 295 295 294 294 295 296 296 296
332 331 331 331 331 331 330 328 327 325 323 322 320 318 316 314 312 309 307 306 306 306 307 307 307 307 307 306 306 305 306 306 306 306 305 305 305 304 304 304 303 302 302 301 300 297 295 295 296 296 296 297 296 296 295 293 293 293 294 295 296 296
330 330 330 330 330 329 328 326 325 324 322 321 319 317 316 314 311 308 306 305 305 305 306 306 306 306 306 306 306 305 305 305 306 305 305 305 304 303 303 303 303 302 301 301 299 297 295 296 296 296 296 296 296 296 294 293 293 293 294 295 295 296
Wind_Speed
20 19 18 17 16 15 14 14 14 14 13 12 11 10 9 9 9 9 7 7 6 6 6 7 9 9 8 7 6 6 6 7 7 8 7 5 2 1 3 4 2 1 2 2 2 1 1 2 3 3 2 3 5 6 7 5 5 7 9 10 9 9
20 19 18 17 16 15 15 15 15 14 14 12 11 10 10 10 9 7 6 5 5 5 5 6 7 8 8 7 6 5 5 6 6 6 7 7 6 3 1 3 4 3 2 0 1 1 1 2 2 1 2 3 4 5 6 6 7 8 10 12 12 11
21 20 19 18 17 16 15 15 15 15 14 12 11 10 9 9 7 6 4 3 2 3 4 4 4 4 5 5 5 4 4 4 4 4 5 6 6 6 3 2 3 4 4 3 1 1 1 1 1 3 5 6 6 5 6 7 8 10 10 11 12 11
21 20 20 19 18 17 16 15 15 14 13 12 11 11 9 8 7 5 3 1 1 2 2 3 2 1 2 3 4 3 3 4 3 3 4 4 5 6 5 3 2 2 3 3 3 3 3 4 5 8 9 10 10 9 8 8 8 10 11 12 12 12
22 21 20 19 19 18 17 16 14 13 12 12 12 11 9 7 6 5 3 2 1 1 1 1 2 0 2 4 4 4 3 3 3 3 3 4 4 5 5 4 4 3 2 3 3 3 4 5 6 8 9 9 9 9 10 9 9 10 10 12 13 13
24 22 21 20 20 18 17 16 14 13 12 12 12 11 9 7 6 4 3 2 2 1 0 0 1 2 3 4 4 5 4 2 2 3 3 4 4 4 5 5 4 4 3 3 4 4 4 5 6 8 9 7 6 6 7 8 8 9 10 11 12 12
24 23 22 21 19 17 16 15 15 14 13 13 13 11 10 8 6 5 4 3 2 1 1 1 1 2 3 3 4 4 4 3 3 3 4 4 4 5 5 5 4 4 4 4 5 5 6 6 7 8 8 7 7 6 6 6 7 8 9 11 12 11
24 23 22 21 19 17 16 16 15 15 14 14 13 12 11 9 7 6 6 5 3 3 3 3 3 2 1 1 2 2 2 3 3 3 3 3 4 5 4 4 4 4 4 4 5 6 6 6 6 7 7 7 7 6 7 7 8 8 10 11 12 11
24 24 23 22 20 17 16 16 16 16 15 14 14 13 10 8 8 8 8 7 5 5 5 4 4 3 2 1 1 0 1 2 3 2 2 3 3 4 4 4 4 4 4 4 5 6 6 6 6 7 7 8 8 8 8 9 9 9 10 11 12 12
22 22 22 21 19 18 17 17 17 16 14 14 14 13 11 9 9 10 9 8 7 7 5 4 3 3 2 2 2 1 2 3 3 3 2 3 3 3 3 3 3 4 4 5 5 6 6 6 6 7 8 9 9 9 9 10 10 10 11 11 12 13
21 20 21 21 20 19 18 17 16 15 14 14 13 13 12 10 11 11 10 9 8 8 5 3 3 3 2 3 3 3 4 4 4 4 4 4 4 3 3 2 3 4 4 5 5 5 5 6 6 7 8 9 9 9 10 10 10 10 10 11 12 13
21 19 20 22 22 20 19 17 15 14 14 13 13 14 13 12 13 12 10 9 8 7 5 4 4 4 4 5 6 5 5 5 6 6 5 5 4 3 3 2 2 3 3 3 4 4 5 5 6 7 8 9 10 10 10 10 10 9 9 10 10 11
21 20 21 23 22 20 18 16 14 14 14 14 14 14 14 14 14 12 9 8 8 6 5 4 5 5 6 7 8 9 8 7 7 6 5 4 4 3 2 2 2 3 3 3 4 5 5 5 5 7 8 10 11 11 11 11 10 10 10 10 10 10
20 20 22 22 20 18 16 14 13 13 13 14 14 14 15 15 14 11 9 8 7 6 6 5 6 7 8 8 9 10 9 8 6 5 5 4 3 3 4 4 4 4 4 5 6 6 7 7 7 9 10 12 13 13 12 11 10 10 10 10 10 11
21 21 22 21 19 16 15 14 13 13 14 13 13 14 14 14 12 10 9 8 7 7 7 7 9 9 9 8 8 9 8 7 5 4 4 4 4 4 5 6 6 6 6 6 7 8 8 9 10 11 12 13 13 12 11 11 11 12 13 12 12 13
21 22 22 21 18 16 15 15 14 14 14 13 13 14 12 10 8 8 9 8 8 8 9 10 10 9 9 9 8 8 8 6 4 3 3 3 4 5 6 6 7 7 8 8 8 9 9 9 10 11 11 11 11 11 11 13 14 16 16 15 16 16
21 22 22 20 18 17 17 16 15 14 13 12 12 12 9 7 6 9 10 9 10 10 10 11 10 9 9 9 8 9 8 6 4 2 3 3 4 5 5 6 6 7 7 8 9 9 10 10 10 10 8 8 11 12 13 16 16 17 18 18 18 18
21 22 22 20 19 18 18 17 15 13 12 12 11 9 7 7 9 11 12 11 12 12 12 11 10 9 9 10 9 9 8 6 4 3 3 3 4 4 5 5 5 6 6 7 9 10 11 11 11 9 5 8 12 14 15 16 17 17 19 20 20 19
21 21 21 20 19 18 17 16 15 13 12 11 10 9 10 11 13 14 14 13 13 13 12 12 11 10 10 10 9 8 7 5 4 3 3 3 4 5 5 5 5 5 6 7 9 10 11 11 10 7 5 8 10 14 16 16 17 19 21 22 21 20
21 21 21 20 19 18 17 17 15 14 13 13 13 14 14 15 15 15 14 13 12 12 12 12 11 10 10 10 8 7 6 5 4 3 3 4 6 6 6 6 5 5 5 6 8 11 11 9 6 3 6 9 9 10 15 17 18 19 21 23 22 21
21 20 20 20 20 20 20 19 18 17 16 17 17 17 17 16 15 14 13 12 12 11 11 10 10 8 8 7 6 5 4 4 4 4 5 6 7 7 7 6 5 5 7 9 12 16 14 7 5 5 4 7 8 7 9 15 20 21 21 23 23 22
21 21 20 20 21 21 21 20 20 20 20 20 19 18 18 16 14 13 12 11 10 9 8 8 7 6 4 3 3 3 3 4 4 5 6 6 6 6 7 6 5 7 9 13 17 20 18 11 8 6 2 3 4 3 2 9 19 21 20 22 24 24
21 20 20 21 22 21 20 21 22 23 23 21 20 19 17 15 13 12 10 9 8 7 5 5 5 4 3 3 3 4 5 5 5 5 5 6 7 8 10 9 8 9 10 14 19 22 22 19 14 6 2 3 3 1 2 5 15 19 18 20 25 27
22 21 21 22 21 20 21 22 23 23 23 22 20 18 16 14 12 11 9 8 6 5 4 4 4 4 4 5 6 7 7 7 7 7 6 8 11 12 13 13 12 11 11 15 20 23 23 23 21 12 4 1 2 3 2 5 13 13 13 18 24 28
23 22 22 23 21 21 24 25 25 24 22 22 20 18 16 14 11 10 9 7 6 4 3 4 5 5 6 7 8 8 9 9 9 9 9 12 15 16 16 16 15 14 15 16 19 23 24 24 26 22 13 6 3 2 1 6 10 7 9 15 20 27
24 23 23 22 22 25 28 28 27 26 24 22 19 16 15 14 11 10 8 7 6 4 4 5 6 7 7 8 9 10 10 10 12 12 13 15 17 18 18 17 16 15 16 16 16 21 23 22 24 26 24 18 12 7 2 5 4 3 6 9 15 24
23 23 22 22 24 27 29 28 28 27 25 23 20 16 14 13 11 10 9 8 7 6 5 7 9 9 9 10 11 12 12 13 14 15 15 17 18 19 19 18 17 17 18 16 16 21 21 19 20 22 22 20 19 17 14 10 4 2 4 5 11 21
22 22 22 23 26 29 29 28 27 26 24 22 21 18 16 13 12 11 10 9 8 8 8 9 11 11 11 11 12 13 14 15 16 17 17 18 20 19 19 18 18 19 20 20 20 22 22 19 18 17 16 17 18 19 20 19 13 6 2 4 8 14
21 22 22 24 28 28 28 28 27 25 23 20 20 19 17 15 13 11 11 11 10 10 11 12 12 12 12 13 14 15 15 16 17 18 18 19 20 19 19 19 20 21 22 23 22 21 22 21 19 17 16 16 17 18 19 22 22 16 7 4 4 6
20 22 23 26 29 28 28 27 26 25 23 22 21 21 19 16 15 13 13 13 12 13 13 14 15 14 15 15 16 16 16 17 18 18 19 19 19 19 20 21 22 22 23 24 23 21 22 21 21 20 19 19 19 19 17 18 21 19 12 6 4 5
21 23 25 27 29 28 27 27 26 25 24 24 24 22 21 19 16 15 15 14 14 14 15 16 17 17 17 17 17 17 17 18 18 19 19 19 20 20 21 21 22 23 23 23 22 22 23 22 22 22 23 23 22 21 17 15 16 16 12 7 5 5
22 24 26 28 28 28 27 26 25 24 24 24 24 22 21 20 17 16 16 16 16 16 17 18 18 18 19 18 18 19 19 19 19 19 20 20 20 20 20 21 22 22 23 23 22 22 22 22 22 23 24 25 25 25 23 19 17 17 15 12 10 6
24 25 26 27 27 27 26 25 24 24 23 23 22 21 20 19 17 17 17 18 18 18 19 19 20 20 20 18 19 19 19 20 20 20 20 20 20 20 20 21 22 23 23 23 22 21 21 20 21 23 25 25 25 25 23 21 19 19 18 16 15 10
25 25 26 26 26 26 25 25 24 24 24 23 22 21 19 18 18 17 17 18 18 19 19 20 21 21 20 19 19 20 20 20 20 20 20 20 20 20 20 21 22 23 24 23 22 21 21 21 22 23 24 25 25 24 22 21 20 19 18 18 17 14
25 25 25 26 26 26 25 25 25 24 23 22 21 20 19 19 18 17 18 18 18 19 19 20 21 21 20 20 20 21 20 20 20 20 20 20 20 19 19 21 22 23 23 22 21 22 22 22 23 23 24 24 23 23 22 22 20 19 16 14 15 14
26 25 25 26 26 25 25 24 24 24 23 22 22 22 21 20 18 17 18 18 19 19 20 21 21 21 20 20 21 21 21 21 20 20 19 19 19 19 19 21 22 22 22 21 21 23 22 23 23 23 23 22 22 23 23 23 22 19 16 13 12 13
27 25 25 25 25 25 25 24 23 23 22 22 23 22 22 21 19 19 18 18 19 20 20 21 21 21 21 20 20 20 21 21 20 20 20 19 19 19 19 20 20 21 21 21 22 22 21 22 22 22 22 21 21 22 23 24 24 21 17 14 12 11
Wind_Direction
156 155 155 154 155 154 154 153 149 148 148 149 146 141 135 129 128 124 116 111 105 92 83 79 73 75 84 83 81 77 69 59 52 52 51 53 59 219 226 224 203 141 94 81 86 100 140 206 229 242 274 319 325 323 328 337 344 343 344 343 331 316
157 156 157 158 158 155 157 157 153 154 155 154 148 145 141 135 136 132 126 118 110 99 88 83 73 74 78 77 75 72 69 62 50 47 42 40 40 33 297 246 238 233 231 236 73 140 162 160 180 236 278 311 333 339 333 326 326 333 337 336 333 326
158 159 161 160 159 159 162 162 160 160 158 155 150 148 143 139 139 134 131 121 121 122 109 100 84 73 64 57 53 53 59 53 47 43 34 30 29 26 20 329 263 254 256 268 318 344 203 182 274 305 302 303 310 315 318 318 320 329 335 336 335 331
163 164 164 162 162 164 166 168 167 163 158 156 154 151 146 144 142 139 141 144 172 156 125 112 105 85 14 15 19 27 32 29 28 24 25 25 25 23 17 16 357 309 293 299 317 332 321 307 309 311 307 301 297 298 302 309 318 327 333 334 335 331
169 169 168 166 167 169 170 174 171 164 161 159 157 155 152 150 148 151 150 144 161 150 127 97 90 56 323 334 343 355 0 8 13 7 14 13 21 28 19 18 21 15 356 345 341 341 337 330 334 335 327 310 295 296 300 303 311 320 326 327 328 327
174 172 172 171 170 170 171 174 172 166 165 162 161 161 158 160 166 171 169 168 167 149 87 45 34 356 330 315 321 338 343 349 5 5 11 11 15 21 14 16 27 35 27 18 19 14 7 2 360 358 357 349 325 313 313 310 311 316 323 328 329 327
177 175 174 174 171 170 170 172 171 168 166 164 167 167 166 173 186 193 195 197 200 225 258 261 277 322 319 304 311 332 340 338 354 359 0 8 9 6 3 6 19 28 22 19 22 17 14 8 1 359 360 3 359 352 349 344 337 334 337 338 337 335
182 178 175 175 172 169 169 169 171 172 168 168 174 175 174 182 194 201 203 208 218 237 237 231 236 243 274 299 295 313 338 334 350 354 352 9 11 4 356 355 6 10 7 8 12 12 13 12 11 10 5 3 4 2 357 354 351 346 343 340 339 339
186 181 177 177 173 169 170 172 176 177 173 176 181 181 183 192 201 203 202 206 212 224 221 213 218 207 179 116 191 264 11 9 25 21 8 22 22 14 358 353 0 3 5 3 1 3 7 12 15 16 16 11 5 360 353 348 346 343 340 336 334 335
188 182 178 179 175 169 172 177 181 182 180 184 188 189 194 200 205 203 204 212 216 217 208 196 206 199 178 119 111 70 48 61 55 44 44 39 36 35 26 13 9 9 8 2 357 356 356 1 7 10 11 4 357 352 345 341 339 336 335 334 333 333
189 183 179 181 179 173 176 182 185 188 187 192 197 198 202 206 206 206 211 219 218 216 206 179 183 193 164 106 92 83 74 78 71 70 80 78 67 66 61 41 22 16 9 4 357 346 343 345 349 352 353 350 346 342 337 336 336 333 332 333 337 338
191 186 183 182 180 178 182 187 190 195 198 206 212 211 213 211 209 211 217 217 213 214 207 166 158 161 127 97 92 97 94 89 86 87 93 93 86 81 70 46 28 19 4 353 343 343 350 344 345 348 347 346 344 341 340 339 336 334 334 334 337 338
188 189 187 182 180 181 187 192 198 207 211 218 223 221 218 211 211 218 218 210 204 202 187 156 150 145 116 96 97 103 103 101 97 94 91 87 79 62 46 32 17 359 345 337 336 350 354 349 355 355 354 353 349 347 345 345 345 345 345 345 345 344
186 190 189 184 183 185 193 201 209 217 217 220 221 215 210 208 214 220 211 195 189 182 165 150 140 134 119 106 109 110 108 107 97 88 84 70 52 32 16 11 7 354 348 350 351 351 347 349 356 356 360 358 353 353 355 2 8 11 14 13 10 9
187 191 189 188 188 191 199 204 207 210 207 207 207 204 206 212 216 209 191 178 173 169 158 146 140 139 132 121 116 112 108 106 95 82 72 52 34 19 10 6 2 356 349 349 351 347 345 346 348 353 2 1 1 8 20 35 42 46 46 43 38 34
192 192 191 190 190 192 195 196 196 195 194 196 199 203 207 210 203 184 172 164 158 158 153 147 145 146 139 127 118 110 106 105 101 82 57 42 30 23 19 9 360 353 347 345 342 339 342 343 344 355 6 14 27 39 51 60 62 61 58 54 49 44
192 191 190 188 185 185 187 190 192 190 191 197 200 202 200 191 172 163 164 158 152 150 148 146 142 139 130 122 116 111 109 106 101 81 51 29 25 28 21 6 355 350 348 345 339 335 338 341 344 355 15 47 59 62 66 67 65 61 55 52 48 43
180 182 182 180 177 177 182 187 189 189 191 191 190 189 177 163 148 148 152 150 147 142 140 139 135 134 127 120 118 116 115 109 98 75 46 23 21 23 17 7 355 349 350 351 348 344 341 340 343 352 31 80 73 68 70 67 62 55 48 44 41 37
174 176 176 175 173 173 177 181 181 180 180 177 170 159 149 145 141 142 144 142 141 137 135 134 132 134 131 127 124 117 113 99 78 57 38 26 26 20 18 15 1 356 358 1 1 354 346 341 342 353 64 97 87 73 69 64 55 48 42 38 35 32
175 176 176 174 173 173 170 170 170 167 161 154 148 142 140 142 139 139 141 140 139 135 133 132 130 131 129 126 118 107 99 83 67 50 36 32 31 25 21 15 8 8 5 4 8 6 358 350 352 21 95 102 105 86 67 58 49 43 38 34 32 30
176 179 180 178 176 174 169 163 159 155 146 140 140 141 139 139 138 137 138 138 136 133 134 131 128 127 121 116 106 97 83 73 61 42 41 40 34 29 27 25 25 28 24 22 26 21 15 13 23 35 86 96 113 115 70 52 43 39 36 34 32 31
177 180 183 183 178 174 170 165 157 150 143 138 139 141 139 137 138 137 135 133 130 131 135 132 131 133 129 121 111 109 95 81 64 45 47 47 39 35 39 45 45 48 47 44 43 34 29 32 28 27 57 51 80 132 74 47 38 34 34 32 32 32
178 179 180 178 175 169 164 162 155 148 145 141 138 140 140 139 141 141 134 128 125 125 131 130 126 131 134 131 128 122 111 98 80 61 54 57 57 55 54 56 55 59 62 58 54 45 41 41 33 37 85 35 30 342 304 12 18 22 30 30 30 32
178 177 175 172 170 166 157 153 149 147 147 143 138 140 143 142 143 143 134 126 121 113 115 117 112 113 118 120 117 113 106 95 84 73 67 71 69 63 60 57 58 63 66 65 60 52 49 48 43 45 60 45 34 30 27 339 340 356 23 25 28 29
178 175 173 170 167 162 153 147 144 142 141 138 137 143 147 143 140 138 131 125 118 109 117 119 111 111 115 116 111 104 99 92 85 79 77 77 72 68 65 63 63 67 69 71 71 64 58 55 54 55 59 66 44 29 308 318 329 340 6 14 22 24
176 174 171 168 165 160 154 151 149 145 142 139 140 146 149 144 139 134 126 121 116 115 128 126 119 117 118 115 109 102 98 93 88 84 82 79 75 72 71 71 71 72 73 74 78 74 66 63 63 61 63 69 68 63 21 331 341 331 337 353 10 15
174 174 171 166 164 160 157 157 156 154 153 154 151 148 149 145 140 134 126 122 118 117 123 125 122 119 117 113 108 104 99 95 91 89 86 80 78 77 77 78 76 76 78 77 80 78 70 67 66 62 65 69 68 65 55 42 41 327 327 327 350 5
174 173 170 166 164 162 161 160 159 159 160 163 159 150 148 145 139 137 130 125 122 121 122 123 122 119 117 113 109 106 100 97 95 91 88 83 82 84 84 83 81 81 82 80 80 80 74 69 66 62 62 65 63 60 54 51 48 40 22 297 328 356
171 169 168 166 165 164 165 164 163 163 161 161 158 150 148 144 141 140 132 127 126 126 124 122 122 122 120 116 112 109 102 97 96 93 91 88 88 89 88 87 85 85 84 82 81 80 78 73 69 66 60 58 53 48 46 43 40 42 45 357 338 343
168 168 167 167 166 164 167 169 168 168 163 157 153 149 148 144 143 141 133 131 129 127 126 122 123 122 121 118 114 110 103 98 97 97 96 94 93 91 90 89 87 85 84 83 83 82 82 80 76 72 65 60 53 45 41 35 32 34 36 24 353 325
166 168 167 167 168 167 170 173 173 172 166 160 156 153 151 146 145 143 137 135 132 130 127 124 123 121 119 118 115 109 104 102 101 101 100 97 96 95 93 92 89 87 85 85 86 86 86 84 80 76 70 69 66 60 57 49 38 33 33 25 351 325
163 166 167 168 169 170 174 177 177 174 170 165 162 160 156 150 149 147 143 140 136 133 129 126 124 120 119 118 114 110 107 107 105 103 102 100 99 99 97 95 91 89 87 87 89 86 85 83 80 79 75 74 72 68 64 58 49 41 37 27 10 347
161 164 166 169 171 174 178 180 179 177 173 169 166 163 158 154 153 153 149 145 140 138 133 129 126 121 120 118 114 112 111 111 108 106 105 103 102 100 99 97 93 91 89 87 85 82 82 82 82 82 80 76 71 66 61 54 48 41 35 27 18 3
159 163 166 170 174 177 179 180 179 177 174 170 166 164 160 157 156 155 152 148 145 141 136 130 126 122 122 119 115 114 115 113 112 111 108 104 103 101 100 98 96 94 90 86 81 78 81 86 87 84 80 75 69 63 57 49 45 40 34 28 21 8
159 164 168 171 175 177 178 178 176 175 173 171 168 164 161 159 156 155 153 151 146 142 136 129 126 124 124 121 117 116 116 115 114 113 110 106 104 103 102 101 100 96 91 85 80 78 83 89 88 82 77 73 67 60 52 45 42 40 37 33 26 19
162 167 169 172 175 176 176 175 174 173 172 171 169 164 160 157 156 156 154 150 145 140 135 130 127 127 126 124 121 120 118 115 115 114 110 106 105 105 105 104 102 98 91 85 80 80 86 88 84 79 74 69 64 56 47 42 41 38 39 40 36 32
161 165 168 171 173 173 173 171 172 173 173 173 170 166 161 157 156 156 153 147 141 138 136 133 131 130 129 127 124 122 120 117 116 114 110 107 105 107 107 105 103 98 92 87 82 82 85 85 81 76 71 65 60 53 43 39 38 37 39 43 45 46